Weather History for Thermopolis, WY

Change the Weather History Date:

Wednesday, November 28, 2012

  Actual Average (KWRL) Record (KWRL)
Temperature  
Mean Temperature 36 °F 23 °F  
Max Temperature 42 °F 36 °F 63 °F (1998)
Min Temperature 30 °F 10 °F -17 °F (1960)
Degree Days  
Heating Degree Days 29 42  
Month to date heating degree days 946  
Since 1 July heating degree days 1808  
Cooling Degree Days 0 0  
Month to date cooling degree days 0  
Year to date cooling degree days 535  
Moisture  
Dew Point 14 °F    
Average Humidity 41    
Maximum Humidity 60    
Minimum Humidity 27    
Precipitation  
Precipitation 0.00 in 0.01 in 0.30 in (1975)
Month to date precipitation 0.33  
Year to date precipitation 7.32  
Sea Level Pressure  
Sea Level Pressure 30.15 in    
Wind  
Wind Speed 12 mph ()    
Max Wind Speed 25 mph    
Max Gust Speed 39 mph    
Visibility 10.0 miles    
Events      
T = Trace of Precipitation, MM = Missing Value Source: Averaged Metar Reports

Daily Weather History Graph

Daily Weather History Graph

Search for Another Location

Airport:

Trip Planner

Search our weather history database for the weather conditions in past years. The results will help you decide how hot, cold, wet, or windy it might be!

Date:

Astronomy

Nov. 28, 2012 Rise Set
Actual Time 7:23 AM MST 4:38 PM MST
Civil Twilight 6:51 AM MST 5:10 PM MST
Nautical Twilight 6:15 AM MST 5:46 PM MST
Astronomical Twilight 5:41 AM MST 6:20 PM MST
Moon 4:56 PM MST (11/28) 7:23 AM MST (11/28)
Length of Visible Light 10h 19m
Length of Day
9h 15m
Full, 100% of the Moon is Illuminated
Nov 28
Full
Dec 6
Last Quarter
Dec 13
New
Dec 19
First Quarter
Dec 28
Full

Hourly Weather History & Observations

Time (MST) Temp. Windchill Dew Point Humidity Pressure Visibility Wind Dir Wind Speed Gust Speed Precip Events Conditions
12:35 AM 30.2 °F 21.3 °F 15.8 °F 55% 30.21 in 10.0 mi SSE 10.4 mph - N/A   Clear
12:55 AM 30.2 °F 20.8 °F 17.6 °F 60% 30.21 in 10.0 mi SE 11.5 mph - N/A   Clear
1:15 AM 30.2 °F 21.9 °F 17.6 °F 60% 30.20 in 10.0 mi SSE 9.2 mph - N/A   Clear
1:35 AM 32.0 °F 22.5 °F 17.6 °F 55% 30.20 in 10.0 mi SSE 12.7 mph 19.6 mph N/A   Clear
1:55 AM 30.2 °F 23.4 °F 17.6 °F 60% 30.21 in 10.0 mi SE 6.9 mph - N/A   Clear
2:15 AM 30.2 °F 20.8 °F 17.6 °F 60% 30.20 in 10.0 mi SSE 11.5 mph - N/A   Clear
2:35 AM 30.2 °F 18.9 °F 17.6 °F 60% 30.20 in 10.0 mi SSE 16.1 mph 20.7 mph N/A   Clear
2:55 AM 32.0 °F 20.1 °F 17.6 °F 55% 30.20 in 10.0 mi SSE 19.6 mph 26.5 mph N/A   Clear
3:15 AM 32.0 °F 20.8 °F 15.8 °F 51% 30.21 in 10.0 mi South 17.3 mph 23.0 mph N/A   Clear
3:35 AM 32.0 °F 21.2 °F 15.8 °F 51% 30.21 in 10.0 mi SSE 16.1 mph 21.9 mph N/A   Clear
3:55 AM 32.0 °F 21.2 °F 15.8 °F 51% 30.20 in 10.0 mi SSE 16.1 mph 25.3 mph N/A   Clear
4:15 AM 32.0 °F 20.5 °F 14.0 °F 48% 30.20 in 10.0 mi South 18.4 mph 24.2 mph N/A   Clear
4:35 AM 32.0 °F 20.1 °F 15.8 °F 51% 30.20 in 10.0 mi South 19.6 mph - N/A   Clear
5:15 AM 35.6 °F 24.2 °F 12.2 °F 38% 30.20 in 10.0 mi SSW 21.9 mph - N/A   Clear
5:35 AM 37.4 °F 28.5 °F 10.4 °F 33% 30.20 in 10.0 mi South 15.0 mph 28.8 mph N/A   Clear
5:55 AM 35.6 °F 25.5 °F 10.4 °F 35% 30.20 in 10.0 mi South 17.3 mph 23.0 mph N/A   Clear
6:35 AM 35.6 °F 25.2 °F 10.4 °F 35% 30.20 in 10.0 mi SSW 18.4 mph 24.2 mph N/A   Clear
7:15 AM 35.6 °F 24.5 °F 12.2 °F 38% 30.20 in 10.0 mi South 20.7 mph 27.6 mph N/A   Clear
7:35 AM 37.4 °F 25.9 °F 10.4 °F 33% 30.19 in 10.0 mi South 25.3 mph 39.1 mph N/A   Clear
7:55 AM 35.6 °F 23.4 °F 12.2 °F 38% 30.19 in 10.0 mi South 25.3 mph 31.1 mph N/A   Clear
8:15 AM 33.8 °F 23.5 °F 12.2 °F 41% 30.20 in 10.0 mi South 16.1 mph 23.0 mph N/A   Clear
8:35 AM 33.8 °F 24.8 °F 12.2 °F 41% 30.20 in 10.0 mi South 12.7 mph - N/A   Clear
8:55 AM 32.0 °F 23.0 °F 14.0 °F 48% 30.20 in 10.0 mi SSE 11.5 mph - N/A   Clear
9:15 AM 32.0 °F 24.2 °F 14.0 °F 48% 30.20 in 10.0 mi SSE 9.2 mph - N/A   Clear
9:35 AM 33.8 °F 25.3 °F 12.2 °F 41% 30.21 in 10.0 mi South 11.5 mph 18.4 mph N/A   Clear
9:55 AM 33.8 °F 26.4 °F 12.2 °F 41% 30.20 in 10.0 mi SSE 9.2 mph - N/A   Clear
10:15 AM 35.6 °F 27.5 °F 12.2 °F 38% 30.20 in 10.0 mi South 11.5 mph - N/A   Clear
10:35 AM 33.8 °F 26.4 °F 14.0 °F 44% 30.20 in 10.0 mi SSE 9.2 mph - N/A   Clear
10:55 AM 32.0 °F 24.2 °F 15.8 °F 51% 30.21 in 10.0 mi South 9.2 mph - N/A   Clear
11:15 AM 33.8 °F 25.3 °F 14.0 °F 44% 30.21 in 10.0 mi South 11.5 mph - N/A   Clear
11:35 AM 35.6 °F 28.0 °F 12.2 °F 38% 30.20 in 10.0 mi South 10.4 mph 18.4 mph N/A   Clear
11:55 AM 37.4 °F 31.4 °F 12.2 °F 36% 30.20 in 10.0 mi SSE 8.1 mph - N/A   Clear
12:15 PM 35.6 °F 28.6 °F 17.6 °F 48% 30.20 in 10.0 mi SSE 9.2 mph - N/A   Clear
12:35 PM 35.6 °F 29.9 °F 14.0 °F 41% 30.19 in 10.0 mi SSE 6.9 mph - N/A   Clear
12:55 PM 41.0 °F 35.2 °F 14.0 °F 33% 30.18 in 10.0 mi SSW 9.2 mph - N/A   Clear
1:15 PM 41.0 °F 35.2 °F 12.2 °F 31% 30.18 in 10.0 mi SW 9.2 mph 16.1 mph N/A   Clear
1:35 PM 42.8 °F 37.0 °F 14.0 °F 31% 30.17 in 10.0 mi SW 10.4 mph 18.4 mph N/A   Clear
1:55 PM 42.8 °F 35.1 °F 14.0 °F 31% 30.16 in 10.0 mi SW 16.1 mph - N/A   Clear
2:15 PM 42.8 °F 37.0 °F 14.0 °F 31% 30.15 in 10.0 mi South 10.4 mph 20.7 mph N/A   Clear
2:35 PM 42.8 °F 35.1 °F 14.0 °F 31% 30.14 in 10.0 mi SSW 16.1 mph - N/A   Clear
2:55 PM 42.8 °F 35.8 °F 12.2 °F 29% 30.14 in 10.0 mi SSW 13.8 mph 20.7 mph N/A   Clear
3:15 PM 42.8 °F 36.2 °F 12.2 °F 29% 30.14 in 10.0 mi SSW 12.7 mph - N/A   Clear
3:35 PM 41.0 °F 35.2 °F 10.4 °F 29% 30.13 in 10.0 mi South 9.2 mph - N/A   Clear
3:55 PM 42.8 °F 36.6 °F 10.4 °F 27% 30.12 in 10.0 mi South 11.5 mph - N/A   Clear
4:15 PM 37.4 °F 29.8 °F 14.0 °F 38% 30.12 in 10.0 mi SSE 11.5 mph - N/A   Clear
4:35 PM 37.4 °F 30.3 °F 12.2 °F 36% 30.11 in 10.0 mi SE 10.4 mph - N/A   Clear
5:15 PM 39.2 °F 32.0 °F 10.4 °F 31% 30.11 in 10.0 mi SSE 11.5 mph - N/A   Clear
5:35 PM 37.4 °F 30.3 °F 12.2 °F 36% 30.11 in 10.0 mi SSE 10.4 mph - N/A   Clear
5:55 PM 37.4 °F 30.3 °F 10.4 °F 33% 30.10 in 10.0 mi SSE 10.4 mph - N/A   Clear
6:15 PM 37.4 °F 30.3 °F 10.4 °F 33% 30.10 in 10.0 mi SSE 10.4 mph - N/A   Clear
6:35 PM 39.2 °F 31.6 °F 10.4 °F 31% 30.10 in 10.0 mi SE 12.7 mph - N/A   Clear
6:55 PM 37.4 °F 29.3 °F 10.4 °F 33% 30.09 in 10.0 mi SE 12.7 mph - N/A   Clear
7:15 PM 37.4 °F 30.3 °F 10.4 °F 33% 30.09 in 10.0 mi SE 10.4 mph - N/A   Clear
7:35 PM 37.4 °F 28.5 °F 10.4 °F 33% 30.09 in 10.0 mi SE 15.0 mph - N/A   Clear
7:55 PM 35.6 °F 25.9 °F 10.4 °F 35% 30.08 in 10.0 mi SE 16.1 mph - N/A   Clear
8:15 PM 35.6 °F 25.9 °F 12.2 °F 38% 30.09 in 10.0 mi SE 16.1 mph - N/A   Clear
8:35 PM 35.6 °F 26.6 °F 12.2 °F 38% 30.08 in 10.0 mi SE 13.8 mph - N/A   Clear
8:55 PM 37.4 °F 29.3 °F 14.0 °F 38% 30.08 in 10.0 mi South 12.7 mph - N/A   Clear
9:35 PM 37.4 °F 31.4 °F 14.0 °F 38% 30.08 in 10.0 mi SE 8.1 mph - N/A   Clear
9:55 PM 37.4 °F 32.1 °F 14.0 °F 38% 30.07 in 10.0 mi SE 6.9 mph - N/A   Clear
10:15 PM 37.4 °F 31.4 °F 14.0 °F 38% 30.07 in 10.0 mi SE 8.1 mph - N/A   Clear
10:35 PM 35.6 °F 28.0 °F 17.6 °F 48% 30.07 in 10.0 mi SE 10.4 mph - N/A   Scattered Clouds
10:55 PM 33.8 °F 23.5 °F 17.6 °F 52% 30.06 in 10.0 mi SE 16.1 mph 21.9 mph N/A   Scattered Clouds
11:15 PM 35.6 °F 26.6 °F 17.6 °F 48% 30.05 in 10.0 mi SE 13.8 mph 19.6 mph N/A   Scattered Clouds
11:35 PM 35.6 °F 26.2 °F 15.8 °F 44% 30.05 in 10.0 mi SE 15.0 mph - N/A   Clear
11:55 PM 35.6 °F 24.8 °F 17.6 °F 48% 30.04 in 10.0 mi SE 19.6 mph - N/A   Clear